When you browse on this site, cookies collect data to enhance your experience and personalize the content and advertising you see.
Visit our Privacy Policy to learn more. By continuing to use the site, you agree to this use of cookies and data.
  • In Latvia
  • List of Countries
  • For 7 days
  • Water Temperature
  • Satellite Maps
  • Weather Map
  • Weather Widgets
  • user-avatar
    Login

    Hourly Weather Luanda

    Today, 18 July, Thursday

    Time Temperature Precipitation Wind Pressure Humidity
    00:00 +23°C° 0 mm 2 mps 755 mmHg 88%
    01:00 +23°C° 0 mm 1 mps 755 mmHg 86%
    02:00 +23°C° 0 mm 1 mps 755 mmHg 86%
    03:00 +23°C° 0 mm 1 mps 755 mmHg 85%
    04:00 +21°C° 0 mm 0 mps 755 mmHg 85%
    05:00 +23°C° 0 mm 1 mps 755 mmHg 85%
    06:00 +23°C° 0 mm 1 mps 755 mmHg 84%
    07:00 +23°C° 0 mm 2 mps 755 mmHg 84%
    08:00 +25°C° 0 mm 1 mps 755 mmHg 76%
    09:00 +26°C° 0 mm 1 mps 755 mmHg 69%
    10:00 +28°C° 0 mm 1 mps 755 mmHg 61%
    11:00 +29°C° 0 mm 2 mps 755 mmHg 56%
    12:00 +30°C° 0 mm 3 mps 754 mmHg 52%
    13:00 +33°C° 0 mm 4 mps 753 mmHg 48%
    14:00 +30°C° 0 mm 5 mps 752 mmHg 53%
    15:00 +29°C° 0 mm 5 mps 752 mmHg 58%
    16:00 +27°C° 0 mm 6 mps 751 mmHg 63%
    17:00 +26°C° 0 mm 5 mps 752 mmHg 72%
    18:00 +23°C° 0 mm 5 mps 752 mmHg 80%
    19:00 +22°C° 0 mm 5 mps 753 mmHg 89%
    20:00 +21°C° 0 mm 3 mps 754 mmHg 91%
    21:00 +21°C° 0 mm 2 mps 754 mmHg 93%
    22:00 +21°C° 0 mm 1 mps 755 mmHg 96%
    23:00 +22°C° 0 mm 1 mps 755 mmHg 91%

    Tomorrow, 19 July, Friday

    Time Temperature Precipitation Wind Pressure Humidity
    00:00 +22°C° 0 mm 1 mps 755 mmHg 87%
    01:00 +21°C° 0 mm 0 mps 755 mmHg 82%
    02:00 +21°C° 0 mm 0 mps 755 mmHg 81%
    03:00 +23°C° 0 mm 1 mps 755 mmHg 80%
    04:00 +23°C° 0 mm 1 mps 755 mmHg 79%
    05:00 +23°C° 0 mm 1 mps 755 mmHg 78%
    06:00 +23°C° 0 mm 1 mps 755 mmHg 77%
    07:00 +23°C° 0 mm 1 mps 755 mmHg 76%
    08:00 +25°C° 0 mm 1 mps 756 mmHg 69%
    09:00 +26°C° 0 mm 1 mps 756 mmHg 61%
    10:00 +28°C° 0 mm 2 mps 756 mmHg 54%
    11:00 +29°C° 0 mm 3 mps 755 mmHg 51%
    12:00 +30°C° 0 mm 4 mps 754 mmHg 48%
    13:00 +32°C° 0 mm 4 mps 754 mmHg 45%
    14:00 +29°C° 0 mm 5 mps 753 mmHg 50%
    15:00 +28°C° 0 mm 5 mps 752 mmHg 56%
    16:00 +27°C° 0 mm 6 mps 752 mmHg 61%
    17:00 +25°C° 0 mm 5 mps 752 mmHg 69%
    18:00 +23°C° 0 mm 5 mps 753 mmHg 77%
    19:00 +22°C° 0 mm 5 mps 753 mmHg 85%
    20:00 +21°C° 0 mm 4 mps 754 mmHg 89%
    21:00 +20°C° 0 mm 2 mps 754 mmHg 92%
    22:00 +19°C° 0 mm 0 mps 755 mmHg 95%
    23:00 +21°C° 0 mm 1 mps 755 mmHg 93%

    Day after tomorrow, 20 July, Saturday

    Time Temperature Precipitation Wind Pressure Humidity
    00:00 +20°C° 0 mm 2 mps 755 mmHg 91%
    01:00 +21°C° 0 mm 2 mps 755 mmHg 90%
    02:00 +21°C° 0 mm 2 mps 755 mmHg 90%
    03:00 +20°C° 0 mm 2 mps 755 mmHg 90%
    04:00 +20°C° 0 mm 2 mps 755 mmHg 90%
    05:00 +20°C° 0 mm 2 mps 755 mmHg 89%
    06:00 +20°C° 0 mm 2 mps 756 mmHg 87%
    07:00 +20°C° 0 mm 2 mps 756 mmHg 86%
    08:00 +23°C° 0 mm 2 mps 756 mmHg 77%
    09:00 +25°C° 0 mm 2 mps 756 mmHg 67%
    10:00 +27°C° 0 mm 2 mps 756 mmHg 58%
    11:00 +27°C° 0 mm 3 mps 756 mmHg 56%
    12:00 +28°C° 0 mm 3 mps 755 mmHg 53%
    13:00 +29°C° 0 mm 4 mps 754 mmHg 50%
    14:00 +28°C° 0 mm 5 mps 754 mmHg 55%
    15:00 +27°C° 0 mm 5 mps 753 mmHg 59%
    16:00 +26°C° 0 mm 6 mps 753 mmHg 63%
    17:00 +24°C° 0 mm 6 mps 753 mmHg 71%
    18:00 +22°C° 0 mm 5 mps 753 mmHg 79%
    19:00 +21°C° 0 mm 5 mps 754 mmHg 87%
    20:00 +21°C° 0 mm 4 mps 755 mmHg 90%
    21:00 +20°C° 0 mm 2 mps 755 mmHg 93%
    22:00 +20°C° 0 mm 1 mps 756 mmHg 95%
    23:00 +21°C° 0 mm 1 mps 756 mmHg 94%

    21 July, Sunday

    Time Temperature Precipitation Wind Pressure Humidity
    00:00 +21°C° 0 mm 1 mps 756 mmHg 93%
    01:00 +20°C° 0 mm 2 mps 756 mmHg 92%
    02:00 +20°C° 0 mm 2 mps 756 mmHg 91%
    03:00 +21°C° 0 mm 1 mps 756 mmHg 89%
    04:00 +22°C° 0 mm 1 mps 756 mmHg 87%
    05:00 +21°C° 0 mm 2 mps 756 mmHg 84%
    06:00 +21°C° 0 mm 2 mps 757 mmHg 81%
    07:00 +23°C° 0 mm 2 mps 757 mmHg 77%
    08:00 +24°C° 0 mm 2 mps 757 mmHg 70%
    09:00 +25°C° 0 mm 2 mps 757 mmHg 63%
    10:00 +27°C° 0 mm 2 mps 757 mmHg 56%
    11:00 +28°C° 0 mm 2 mps 757 mmHg 52%
    12:00 +29°C° 0 mm 3 mps 756 mmHg 48%
    13:00 +30°C° 0 mm 4 mps 755 mmHg 44%
    14:00 +29°C° 0 mm 4 mps 755 mmHg 49%
    15:00 +28°C° 0 mm 5 mps 754 mmHg 53%
    16:00 +27°C° 0 mm 5 mps 754 mmHg 58%
    17:00 +25°C° 0 mm 5 mps 754 mmHg 68%
    18:00 +23°C° 0 mm 5 mps 755 mmHg 78%
    19:00 +21°C° 0 mm 5 mps 755 mmHg 87%
    20:00 +21°C° 0 mm 4 mps 756 mmHg 89%
    21:00 +20°C° 0 mm 3 mps 756 mmHg 91%
    22:00 +20°C° 0 mm 2 mps 757 mmHg 93%
    23:00 +20°C° 0 mm 2 mps 757 mmHg 92%

    22 July, Monday

    Time Temperature Precipitation Wind Pressure Humidity
    00:00 +21°C° 0 mm 1 mps 757 mmHg 90%
    01:00 +21°C° 0 mm 1 mps 757 mmHg 89%
    02:00 +22°C° 0.1 mm 1 mps 757 mmHg 85%
    03:00 +22°C° 0.1 mm 1 mps 757 mmHg 82%
    04:00 +23°C° 0.1 mm 1 mps 757 mmHg 78%
    05:00 +23°C° 0 mm 1 mps 757 mmHg 76%
    06:00 +23°C° 0 mm 1 mps 757 mmHg 74%
    07:00 +23°C° 0 mm 1 mps 758 mmHg 71%
    08:00 +25°C° 0 mm 1 mps 758 mmHg 64%
    09:00 +27°C° 0 mm 1 mps 758 mmHg 57%
    10:00 +28°C° 0 mm 1 mps 758 mmHg 49%
    11:00 +29°C° 0 mm 2 mps 757 mmHg 48%
    12:00 +29°C° 0 mm 3 mps 756 mmHg 46%
    13:00 +30°C° 0 mm 4 mps 755 mmHg 45%
    14:00 +29°C° 0 mm 5 mps 755 mmHg 49%
    15:00 +28°C° 0 mm 5 mps 754 mmHg 53%
    16:00 +27°C° 0 mm 5 mps 754 mmHg 57%
    17:00 +25°C° 0 mm 5 mps 754 mmHg 64%
    18:00 +23°C° 0 mm 5 mps 754 mmHg 72%
    19:00 +21°C° 0 mm 5 mps 755 mmHg 79%
    20:00 +21°C° 0 mm 4 mps 755 mmHg 83%
    21:00 +20°C° 0 mm 4 mps 756 mmHg 86%
    22:00 +20°C° 0 mm 4 mps 756 mmHg 90%
    23:00 +19°C° 0 mm 3 mps 756 mmHg 92%

    23 July, Tuesday

    Time Temperature Precipitation Wind Pressure Humidity
    00:00 +19°C° 0 mm 3 mps 756 mmHg 93%
    01:00 +18°C° 0 mm 2 mps 755 mmHg 95%
    02:00 +18°C° 0 mm 2 mps 755 mmHg 95%
    03:00 +18°C° 0 mm 3 mps 755 mmHg 96%
    04:00 +18°C° 0 mm 3 mps 755 mmHg 96%
    05:00 +18°C° 0 mm 3 mps 755 mmHg 95%
    06:00 +18°C° 0 mm 2 mps 756 mmHg 94%
    07:00 +18°C° 0 mm 2 mps 756 mmHg 93%
    08:00 +20°C° 0 mm 2 mps 756 mmHg 81%
    09:00 +24°C° 0 mm 1 mps 756 mmHg 70%
    10:00 +26°C° 0 mm 1 mps 756 mmHg 58%
    11:00 +27°C° 0 mm 2 mps 755 mmHg 53%
    12:00 +28°C° 0 mm 3 mps 754 mmHg 49%
    13:00 +30°C° 0 mm 4 mps 754 mmHg 45%
    14:00 +29°C° 0 mm 5 mps 753 mmHg 49%
    15:00 +28°C° 0 mm 5 mps 753 mmHg 53%
    16:00 +27°C° 0 mm 6 mps 753 mmHg 58%
    17:00 +24°C° 0 mm 6 mps 753 mmHg 65%
    18:00 +22°C° 0 mm 5 mps 754 mmHg 72%
    19:00 +21°C° 0 mm 5 mps 754 mmHg 80%
    20:00 +20°C° 0 mm 5 mps 755 mmHg 84%
    21:00 +20°C° 0 mm 4 mps 755 mmHg 87%
    22:00 +19°C° 0 mm 3 mps 755 mmHg 91%
    23:00 +20°C° 0 mm 3 mps 755 mmHg 87%
    Show more